Theta_e
287 286 286 284 284 284 283 282 281 281 280 279 279 279 279 278 278 278 279 278 279 279
287 286 285 284 283 283 282 281 280 280 279 278 278 278 277 277 277 278 278 278 278 278
286 286 286 283 282 281 281 280 279 278 277 277 277 277 277 277 277 277 277 278 277 278
285 285 283 283 282 281 280 279 278 277 277 276 276 276 276 276 276 275 276 276 276 276
283 282 282 281 280 279 278 277 277 276 276 276 276 275 275 274 275 274 274 275 274 274
282 281 281 280 278 278 277 276 276 276 275 275 275 274 274 274 274 274 273 273 273 273
282 281 280 278 278 277 277 275 275 275 274 274 274 274 274 274 273 273 273 273 273 273
282 280 277 277 277 276 275 275 274 273 273 273 273 273 273 273 273 273 273 274 274 274
279 277 277 277 276 275 274 274 274 273 273 272 273 276 277 276 274 274 274 274 274 274
278 276 276 276 275 274 273 274 273 272 273 272 273 277 278 278 276 275 274 273 273 274
276 276 275 274 274 273 273 272 272 272 272 272 272 276 277 277 275 274 274 274 273 273
276 275 273 273 272 272 272 272 271 272 271 271 272 276 275 275 275 274 273 274 274 274
275 274 273 273 272 273 273 271 271 271 271 271 269 274 275 276 274 269 272 273 275 275
274 273 273 272 272 272 272 271 270 269 269 269 269 270 275 276 273 272 271 273 272 273
Wind_Speed
15 11 11 12 10 11 11 10 10 9 8 8 8 7 6 4 4 4 4 6 5 4
14 16 13 12 10 10 9 8 11 10 9 7 7 7 7 4 5 5 5 5 5 5
15 16 12 11 13 11 9 10 11 10 9 8 6 6 7 5 4 5 4 4 5 5
15 14 11 13 12 12 10 11 12 11 9 8 8 6 5 5 5 5 5 5 5 7
12 12 13 13 12 11 12 9 10 10 9 9 7 7 6 5 4 5 5 5 5 6
13 14 15 13 12 12 12 11 10 10 10 9 8 7 6 6 6 5 5 5 6 7
16 16 14 13 13 13 12 12 10 9 9 8 7 7 6 6 5 5 5 6 7 7
14 13 13 14 14 13 13 11 10 9 7 7 6 5 6 6 5 6 6 7 8 9
14 14 15 15 14 13 12 12 12 10 10 8 6 12 13 10 8 8 8 8 7 9
16 16 16 15 15 15 14 13 12 11 10 10 9 15 14 12 7 6 6 8 9 10
16 16 15 15 15 15 14 14 13 12 11 9 8 14 13 12 6 7 7 8 10 12
17 16 16 16 15 13 12 11 10 9 10 10 9 14 11 10 6 6 7 8 10 11
15 16 17 16 15 13 12 11 8 8 8 10 8 13 13 11 4 4 5 8 9 12
13 14 14 14 12 13 12 11 10 10 8 8 9 10 14 12 4 3 4 3 5 6
Wind_Direction
195 191 197 190 181 186 187 184 174 175 168 170 169 163 160 157 172 186 210 228 218 233
194 197 199 189 182 184 176 169 168 167 164 161 164 166 164 166 179 200 213 221 222 229
194 198 193 177 185 181 172 159 159 159 158 161 163 164 163 172 179 202 213 234 225 234
195 189 175 183 187 179 162 162 160 159 158 162 164 171 175 177 180 206 217 228 237 249
183 175 178 186 175 159 162 159 158 157 162 166 165 161 169 187 193 205 220 246 250 260
184 183 188 179 162 157 152 158 162 164 166 165 165 166 166 189 192 201 212 234 251 265
189 188 181 166 161 160 162 160 161 167 158 163 160 162 174 198 199 217 228 234 245 262
184 175 162 162 163 160 161 159 153 150 150 150 155 168 181 193 198 221 233 247 259 260
168 165 166 165 163 160 157 155 153 160 161 159 174 198 205 194 200 215 245 265 272 272
166 170 171 164 160 167 165 157 162 160 164 173 181 198 204 216 218 224 248 266 275 276
168 170 166 164 168 165 163 163 166 171 170 171 184 196 204 213 219 235 248 260 265 268
167 166 165 170 167 162 160 160 162 165 164 169 180 190 198 211 220 234 253 261 265 270
165 166 169 164 163 163 165 159 155 157 169 177 169 194 198 208 195 212 242 261 270 281
166 164 163 155 161 151 154 149 155 154 175 180 178 191 192 206 185 198 246 254 286 292